[Date Prev][Date Next][Thread Prev][Thread Next] - [Date Index][Thread Index][Author Index]
2 Line ISS Keps 11-22
- Subject: [sarex] 2 Line ISS Keps 11-22
- From: "Dave Larsen PhD" <doc@xxxxxxxxxxx>
- Date: Thu, 22 Nov 2001 03:43:13 -0800
ISS
1 25544U 98067A 01326.17128940 .00038850 00000-0 44205-3 0 7466
2 25544 51.6390 14.1025 0010221 4.0171 112.4636 15.61834372171730
----
Via the sarex mailing list at AMSAT.ORG courtesy of AMSAT-NA.
To unsubscribe, send "unsubscribe sarex" to Majordomo@amsat.org
AMSAT Home